Location: Chimay
(50.0486°N, 4.3171°E)
Time: 04:53:26
(UTC+00:00)

ERBS - Pass Details

Date: 08 August 2020
Orbit: 412 x 420 km, 57.0° (Epoch: 19 September)

Event Time Altitude Azimuth Distance (km) Brightness Sun altitude
Rises 23:46:22 0° 301° (WNW) 2,356 6.5 -24.2°
Reaches altitude 10° 23:48:34 10° 311° (NW) 1,491 5.5 -24.2°
Maximum altitude 23:51:40 35° 19° (NNE) 684 3.8 -24.2°
Enters shadow 23:51:42 35° 21° (NNE) 684 3.8 -24.2°
